Regional Weather Roundup
Issued by NWS

Current Version | Previous Version | Text Only | Print | Product List | Glossary On
Versions: 1 2 3 4 5 6 7 8 9 10 11 12 13 14 15 16 17 18 19 20 21 22 23 24 25 26 27 28 29 30 31 32 33 34 35 36 37 38 39 40 41 42 43 44 45 46 47 48 49 50
000
ASCA42 TJSJ 311110
RWRPR
PUERTO RICO/U.S. VIRGIN ISLANDS HOURLY WEATHER ROUNDUP
NATIONAL WEATHER SERVICE SAN JUAN PR
700 AM AST FRI JUL 31 2015

PRZ001-004-311200-
PUERTO RICO

CITY           SKY/WX    TMP DP  RH WIND       PRES   REMARKS
SAN JUAN LMM   MOSUNNY   81  77  89 E6        30.05R
PONCE          MOSUNNY   81  73  78 CALM      29.99R
AGUADILLA      SUNNY     77  72  83 E5        30.06
$$

PRZ006-007-311200-
U.S. VIRGIN ISLANDS

CITY           SKY/WX    TMP DP  RH WIND       PRES   REMARKS
CHARLOTTE AMA  PTSUNNY   84  73  70 E13       30.05R HX  91
CHRISTIANSTED  MOSUNNY   82  73  74 E16G23    30.05R
$$

HOURLY WEATHER ROUNDUP FOR THE NEWS MEDIA

CITY           SKY/WX    TMP DP  RH WIND       PRES   REMARKS
ORLANDO        PTCLDY    77  76  96 S8        29.98R
NEW YORK       MOSUNNY   76  60  57 NW7       29.87R
NEWARK         MOSUNNY   74  62  66 W6        29.87R
CHICAGO        PTCLDY    67  59  75 W8        30.01S
HARTFORD       SUNNY     73  71  93 W5        29.80R
BOSTON         MOSUNNY   74  63  68 W9        29.80R
DALLAS         PTCLDY    82  72  71 E6        30.06S
PHILADELPHIA   SUNNY     72  60  66 SW3       29.89S
LOS ANGELES    PTCLDY    69  65  86 SW3       30.00S
WASHINGTON DC  PTCLDY    65  61  87 CALM      29.95R


USA.gov is the U.S. government's official web portal to all federal, state and local government web resources and services.